Juti, Brazil
Current Conditions -  °F | °C
As of 11:00 AM on Thursday 30 Oct 2014 (Local Time) from SBCA Reporting Station
Scattered Clouds Scattered Clouds  
Wind Chill: 86°   Ceiling: Unl
Heat Index: 87°   Visibility: 6mi
Dew Point: 64°   Wind: 21mph
Humidity: 48%   Direction: 340°NNW
Pressure: 29.85"   Gusts: 32mph
Location:  22.86°S, 54.6°W
Report Text: SBCA 301400Z 34018G28KT 9999 SCT040 FEW050TCU 30/18 Q1011
Loading
Personal Weather Stations






























Interactive Weather Map
Tropical Storm Tracking
New forecast layout! Learn more

10-Day Weather Forecast

Advertisements
Track Severe Weather on mobile